Weather History for Mineral Point, WI

Change the Weather History Date:

Thursday, May 2, 2013

  Actual Average (KLNR) Record (KLNR)
Temperature  
Mean Temperature 40 °F -  
Max Temperature 46 °F 64 °F 80 °F (2012)
Min Temperature 35 °F 42 °F 27 °F (2005)
Degree Days  
Heating Degree Days 24    
Moisture  
Dew Point 34 °F    
Average Humidity 77    
Maximum Humidity 93    
Minimum Humidity 61    
Precipitation  
Precipitation 0.00 in - - ()
Sea Level Pressure  
Sea Level Pressure 30.25 in    
Wind  
Wind Speed 15 mph (North)    
Max Wind Speed 21 mph    
Max Gust Speed 28 mph    
Visibility 9 miles    
Events Rain    
Averages and records for this station are not official NWS values.
T = Trace of Precipitation, MM = Missing Value Source: NWS Daily Summary

Daily Weather History Graph

Daily Weather History Graph

Search for Another Location

Airport:

Trip Planner

Search our weather history database for the weather conditions in past years. The results will help you decide how hot, cold, wet, or windy it might be!

Date:

Astronomy

May. 02, 2013 Rise Set
Actual Time 5:53 AM CDT 8:03 PM CDT
Civil Twilight 5:22 AM CDT 8:34 PM CDT
Nautical Twilight 4:43 AM CDT 9:12 PM CDT
Astronomical Twilight 4:01 AM CDT 9:55 PM CDT
Moon 1:51 AM CDT (5/2) 12:42 PM CDT (5/2)
Length of Visible Light 15h 12m
Length of Day
14h 09m
Waning Gibbous, 47% of the Moon is Illuminated
May 2
Waning Gibbous
May 9
New
May 17
First Quarter
May 24
Full
May 31
Last Quarter

Hourly Weather History & Observations

Time (CDT) Temp. Windchill Dew Point Humidity Pressure Visibility Wind Dir Wind Speed Gust Speed Precip Events Conditions
12:15 AM 46.4 °F 40.1 °F 35.6 °F 66% 30.21 in 10.0 mi North 15.0 mph 21.9 mph N/A   Scattered Clouds
12:35 AM 46.4 °F 40.4 °F 35.6 °F 66% 30.22 in 10.0 mi North 13.8 mph 17.3 mph N/A   Scattered Clouds
12:55 AM 46.4 °F 40.4 °F 35.6 °F 66% 30.22 in 10.0 mi North 13.8 mph 19.6 mph N/A   Mostly Cloudy
1:15 AM 46.4 °F 40.4 °F 35.6 °F 66% 30.22 in 10.0 mi North 13.8 mph 20.7 mph N/A   Scattered Clouds
1:35 AM 46.4 °F 40.4 °F 35.6 °F 66% 30.21 in 10.0 mi North 13.8 mph 20.7 mph N/A   Mostly Cloudy
2:15 AM 44.6 °F 38.1 °F 35.6 °F 71% 30.20 in 10.0 mi North 13.8 mph 21.9 mph N/A   Scattered Clouds
2:35 AM 44.6 °F 36.9 °F 35.6 °F 71% 30.21 in 10.0 mi North 18.4 mph 24.2 mph N/A   Clear
2:55 AM 44.6 °F 38.1 °F 35.6 °F 71% 30.21 in 10.0 mi North 13.8 mph 21.9 mph N/A   Clear
3:15 AM 44.6 °F 37.4 °F 35.6 °F 71% 30.21 in 10.0 mi North 16.1 mph 20.7 mph N/A   Clear
3:35 AM 42.8 °F 36.2 °F 33.8 °F 70% 30.22 in 10.0 mi North 12.7 mph - N/A   Clear
3:55 AM 42.8 °F 35.8 °F 33.8 °F 70% 30.22 in 10.0 mi North 13.8 mph 21.9 mph N/A   Clear
4:15 AM 42.8 °F 36.2 °F 33.8 °F 70% 30.21 in 10.0 mi NNE 12.7 mph 21.9 mph N/A   Clear
4:35 AM 42.8 °F 35.8 °F 33.8 °F 70% 30.22 in 10.0 mi NNE 13.8 mph 24.2 mph N/A   Clear
4:55 AM 42.8 °F 36.6 °F 33.8 °F 70% 30.22 in 10.0 mi NNE 11.5 mph 20.7 mph N/A   Clear
5:15 AM 42.8 °F 36.2 °F 33.8 °F 70% 30.23 in 10.0 mi NNE 12.7 mph 20.7 mph N/A   Clear
5:35 AM 42.8 °F 35.4 °F 33.8 °F 70% 30.22 in 10.0 mi NNE 15.0 mph 23.0 mph N/A   Scattered Clouds
5:55 AM 42.8 °F 36.2 °F 33.8 °F 70% 30.23 in 10.0 mi North 12.7 mph - N/A   Scattered Clouds
6:15 AM 42.8 °F 34.8 °F 32.0 °F 66% 30.24 in 10.0 mi North 17.3 mph 20.7 mph N/A   Scattered Clouds
6:35 AM 42.8 °F 36.2 °F 32.0 °F 66% 30.25 in 10.0 mi NNE 12.7 mph 23.0 mph N/A   Scattered Clouds
6:55 AM 42.8 °F 35.8 °F 32.0 °F 66% 30.26 in 10.0 mi North 13.8 mph 23.0 mph N/A   Mostly Cloudy
7:15 AM 42.8 °F 35.4 °F 32.0 °F 66% 30.26 in 10.0 mi North 15.0 mph 18.4 mph N/A   Overcast
7:35 AM 42.8 °F 35.8 °F 32.0 °F 66% 30.27 in 10.0 mi North 13.8 mph 19.6 mph N/A   Overcast
7:55 AM 42.8 °F 35.8 °F 32.0 °F 66% 30.30 in 10.0 mi NNW 13.8 mph 20.7 mph N/A   Overcast
8:15 AM 42.8 °F 35.1 °F 32.0 °F 66% 30.29 in 10.0 mi North 16.1 mph 20.7 mph N/A   Overcast
8:35 AM 42.8 °F 34.0 °F 32.0 °F 66% 30.29 in 10.0 mi North 20.7 mph - N/A   Overcast
8:55 AM 42.8 °F 35.1 °F 32.0 °F 66% 30.30 in 10.0 mi North 16.1 mph 19.6 mph N/A   Overcast
9:15 AM 42.8 °F 34.5 °F 32.0 °F 66% 30.28 in 10.0 mi North 18.4 mph 24.2 mph N/A   Overcast
9:35 AM 42.8 °F 34.3 °F 32.0 °F 66% 30.29 in 10.0 mi North 19.6 mph - N/A   Overcast
9:55 AM 44.6 °F 38.8 °F 32.0 °F 61% 30.28 in 10.0 mi North 11.5 mph - N/A   Overcast
10:15 AM 44.6 °F 37.2 °F 32.0 °F 61% 30.26 in 10.0 mi North 17.3 mph 24.2 mph N/A   Overcast
10:35 AM 44.6 °F 37.8 °F 32.0 °F 61% 30.27 in 10.0 mi North 15.0 mph 24.2 mph N/A   Overcast
10:55 AM 42.8 °F 36.2 °F 33.8 °F 70% 30.29 in 10.0 mi North 12.7 mph - N/A Rain Light Rain
11:15 AM 42.8 °F 35.1 °F 35.6 °F 76% 30.29 in 7.0 mi North 16.1 mph - N/A Rain Light Rain
11:55 AM 42.8 °F 34.5 °F 35.6 °F 76% 30.24 in 10.0 mi North 18.4 mph 25.3 mph N/A Rain Light Rain
12:15 PM 42.8 °F 35.1 °F 35.6 °F 76% 30.27 in 10.0 mi North 16.1 mph - N/A   Overcast
12:35 PM 42.8 °F 36.6 °F 35.6 °F 76% 30.28 in 10.0 mi North 11.5 mph - N/A   Overcast
12:55 PM 42.8 °F 36.2 °F 37.4 °F 81% 30.27 in 10.0 mi North 12.7 mph 16.1 mph N/A   Overcast
1:15 PM 42.8 °F 35.4 °F 37.4 °F 81% 30.27 in 10.0 mi NNW 15.0 mph 18.4 mph N/A   Overcast
1:35 PM 42.8 °F 34.8 °F 37.4 °F 81% 30.27 in 10.0 mi NNW 17.3 mph - N/A   Overcast
1:55 PM 42.8 °F 34.5 °F 35.6 °F 76% 30.27 in 10.0 mi NNW 18.4 mph 24.2 mph N/A   Overcast
2:15 PM 42.8 °F 34.8 °F 35.6 °F 76% 30.27 in 10.0 mi North 17.3 mph 23.0 mph N/A   Overcast
2:35 PM 42.8 °F 34.3 °F 35.6 °F 76% 30.27 in 10.0 mi NNW 19.6 mph 26.5 mph N/A   Overcast
2:55 PM 41.0 °F 32.5 °F 35.6 °F 81% 30.26 in 7.0 mi NNW 17.3 mph 24.2 mph N/A   Overcast
3:15 PM 41.0 °F 32.8 °F 37.4 °F 87% 30.26 in 4.0 mi NNW 16.1 mph 21.9 mph N/A   Overcast
3:35 PM 41.0 °F 32.8 °F 37.4 °F 87% 30.25 in 5.0 mi North 16.1 mph 25.3 mph N/A Rain Light Rain
3:55 PM 41.0 °F 32.5 °F 37.4 °F 87% 30.25 in 10.0 mi NNW 17.3 mph 23.0 mph N/A   Overcast
4:15 PM 41.0 °F 32.8 °F 37.4 °F 87% 30.26 in 5.0 mi NNW 16.1 mph 19.6 mph N/A   Overcast
4:35 PM 41.0 °F 31.6 °F 35.6 °F 81% 30.24 in 5.0 mi North 20.7 mph 27.6 mph N/A   Overcast
4:55 PM 41.0 °F 31.9 °F 35.6 °F 81% 30.25 in 10.0 mi North 19.6 mph 26.5 mph N/A   Overcast
5:15 PM 41.0 °F 32.2 °F 35.6 °F 81% 30.25 in 10.0 mi NNW 18.4 mph 27.6 mph N/A   Overcast
5:35 PM 39.2 °F 30.8 °F 35.6 °F 87% 30.25 in 5.0 mi NNW 15.0 mph 25.3 mph N/A   Overcast
5:55 PM 39.2 °F 31.2 °F 35.6 °F 87% 30.25 in 5.0 mi North 13.8 mph 26.5 mph N/A   Overcast
6:15 PM 39.2 °F 31.2 °F 35.6 °F 87% 30.25 in 4.0 mi North 13.8 mph 24.2 mph N/A   Overcast
6:35 PM 39.2 °F 31.2 °F 35.6 °F 87% 30.25 in 5.0 mi North 13.8 mph 23.0 mph N/A   Overcast
6:55 PM 37.4 °F 28.2 °F 35.6 °F 93% 30.24 in 5.0 mi North 16.1 mph - N/A   Overcast
7:15 PM 37.4 °F 28.5 °F 35.6 °F 93% 30.24 in 4.0 mi North 15.0 mph 24.2 mph N/A   Overcast
7:35 PM 37.4 °F 29.3 °F 35.6 °F 93% 30.24 in 5.0 mi North 12.7 mph 19.6 mph N/A   Overcast
7:55 PM 37.4 °F 28.2 °F 33.8 °F 87% 30.24 in 10.0 mi North 16.1 mph 23.0 mph N/A   Overcast
8:15 PM 37.4 °F 28.5 °F 33.8 °F 87% 30.24 in 10.0 mi North 15.0 mph 20.7 mph N/A   Overcast
8:35 PM 37.4 °F 30.8 °F 33.8 °F 87% 30.26 in 10.0 mi North 9.2 mph - N/A   Overcast
8:55 PM 37.4 °F 28.2 °F 33.8 °F 87% 30.26 in 10.0 mi NNW 16.1 mph 21.9 mph N/A   Overcast
9:15 PM 37.4 °F 28.5 °F 33.8 °F 87% 30.26 in 10.0 mi North 15.0 mph 19.6 mph N/A   Overcast
9:35 PM 37.4 °F 28.5 °F 33.8 °F 87% 30.26 in 10.0 mi North 15.0 mph - N/A   Overcast
9:55 PM 37.4 °F 28.2 °F 33.8 °F 87% 30.25 in 10.0 mi North 16.1 mph 20.7 mph N/A   Overcast
10:15 PM 35.6 °F 27.1 °F 33.8 °F 93% 30.24 in 7.0 mi North 12.7 mph 19.6 mph N/A   Overcast
10:35 PM 35.6 °F 27.5 °F 33.8 °F 93% 30.24 in 5.0 mi North 11.5 mph 19.6 mph N/A   Overcast
10:55 PM 35.6 °F 25.5 °F 33.8 °F 93% 30.24 in 10.0 mi North 17.3 mph 20.7 mph N/A   Overcast
11:15 PM 35.6 °F 26.6 °F 32.0 °F 87% 30.23 in 10.0 mi North 13.8 mph 20.7 mph N/A   Overcast
11:35 PM 35.6 °F 26.2 °F 32.0 °F 87% 30.22 in 10.0 mi North 15.0 mph 20.7 mph N/A   Overcast
11:55 PM 35.6 °F 26.2 °F 32.0 °F 87% 30.21 in 10.0 mi North 15.0 mph 21.9 mph N/A   Overcast